Location: Sungai Ketit
(2.6833°N, 113.2333°E)
Time: 21:17:01
(UTC+00:00)

Cosmos 2112 Rocket - Pass Details

Date: 23 May 2024
Orbit: 755 x 784 km, 74.0° (Epoch: 19 June)

Event Time Altitude Azimuth Distance (km) Brightness Sun altitude
Rises 11:23:03 0° 183° (S) 3,267 7.1 -12.8°
Reaches altitude 10° 11:25:30 10° 178° (S) 2,339 6.3 -13.4°
Maximum altitude 11:30:40 52° 102° (ESE) 969 4.1 -14.6°
Drops below altitude 10° 11:35:48 10° 26° (NNE) 2,328 6.5 -15.8°
Sets 11:38:13 0° 22° (NNE) 3,251 7.3 -16.3°
